Flag for French Polynesia Weather past 2 weeks in Papeete, Tahiti, French Polynesia

Now
73 °F

Partly cloudy.


Feels Like: 74 °F
Forecast: 73 / 82 °F
Wind: 6 mph from East

Location: Tahiti-Faaa

Current Time: Jul 5, 2015 at 2:56:44 AM

Latest Report: Jul 5, 2015 at 2:30 AM


Visibility: N/A

Pressure: 29.95 "Hg

Humidity: 78%

Dew point: 66 °F

Location of PapeeteLocation

Historic Weather in Papeete — Graph

°F

Papeete temperature yesterday

Maximum temperature yesterday: 82 °F (at 11:30 AM)
Minimum temperature yesterday: 72 °F (at 1:30 AM)
Average temperature yesterday: 77 °F

Past Weeks' High & Low Weather Summary

 TemperatureHumidityPressure
High86 °F (Jun 28, 11:00 AM)100% (Jun 20, 1:30 AM)29.98 "Hg (Jun 20, 1:30 AM)
Low68 °F (Jun 25, 1:00 AM)48% (Jun 24, 9:00 AM)29.77 "Hg (Jun 23, 3:00 PM)
Average77 °F75%29.87 "Hg
* Reported Jun 20 1:00 AM — Jul 5 1:30 AM, Papeete, Weather by CustomWeather, © 2015

Note: Actual official high and low records may vary slightly from our data, if they occured in-between our weather recording intervals... More about our weather records

Advertising

Papeete weather history for previous 24 hours

 ConditionsComfort  
Time TempWeatherWind HumidityBarometerVisibility
1:30 AM
Sun, Jul 5
73 °FPassing clouds.3 mph78%29.95 "HgN/A
1:00 AM73 °FPassing clouds.3 mph78%29.95 "HgN/A
12:30 AM73 °FPartly cloudy.3 mph83%29.98 "HgN/A
12:00 AM73 °FPassing clouds.2 mph83%29.98 "HgN/A
11:30 PM
Sat, Jul 4
73 °FPassing clouds.No wind78%29.95 "HgN/A
11:00 PM75 °FPassing clouds.3 mph78%29.95 "HgN/A
10:30 PM77 °FPartly cloudy.6 mph74%29.95 "HgN/A
10:00 PM79 °FPassing clouds.6 mph70%29.95 "HgN/A
9:30 PM79 °FPassing clouds.9 mph70%29.95 "HgN/A
9:00 PM77 °FPassing clouds.6 mph74%29.95 "HgN/A
8:30 PM77 °FPartly cloudy.2 mph74%29.95 "HgN/A
8:00 PM77 °FPassing clouds.No wind74%29.95 "HgN/A
7:30 PM77 °FScattered showers. Passing clouds.5 mph69%29.95 "HgN/A
7:00 PM77 °FScattered showers. Passing clouds.8 mph69%29.95 "HgN/A
6:30 PM79 °FScattered showers. Passing clouds.1 mph70%29.92 "HgN/A
5:30 PM79 °FScattered showers. Broken clouds.3 mph70%29.92 "HgN/A
5:00 PM81 °FScattered showers. Broken clouds.8 mph66%29.92 "HgN/A
4:30 PM81 °FBroken clouds.8 mph66%29.92 "HgN/A
4:00 PM82 °FBroken clouds.9 mph62%29.89 "HgN/A
3:30 PM82 °FBroken clouds.7 mph66%29.89 "HgN/A
3:00 PM82 °FBroken clouds.2 mph62%29.89 "HgN/A
2:30 PM82 °FBroken clouds.5 mph62%29.89 "HgN/A
2:00 PM82 °FBroken clouds.3 mph66%29.89 "HgN/A
1:30 PM82 °FPartly sunny.3 mph62%29.89 "HgN/A
1:00 PM81 °FPartly sunny.3 mph66%29.92 "HgN/A
12:30 PM81 °FBroken clouds.9 mph66%29.92 "HgN/A
12:00 PM82 °FBroken clouds.6 mph66%29.92 "HgN/A
11:30 AM82 °FBroken clouds.6 mph66%29.95 "HgN/A
11:00 AM81 °FBroken clouds.5 mph70%29.95 "HgN/A
10:30 AM81 °FBroken clouds.5 mph70%29.95 "HgN/A
10:00 AM81 °FPassing clouds.6 mph70%29.95 "HgN/A
9:30 AM81 °FPassing clouds.3 mph70%29.95 "HgN/A
9:20 AM81 °FPassing clouds.2 mph70%29.95 "HgN/A
8:30 AM79 °FPassing clouds.2 mph70%29.95 "HgN/A
8:00 AM77 °FPassing clouds.3 mph79%29.95 "HgN/A
7:41 AM75 °FScattered clouds.1 mph83%29.92 "HgN/A
7:00 AM73 °FPartly sunny.3 mph83%29.92 "HgN/A
6:30 AM73 °FPartly sunny.3 mph83%29.89 "HgN/A
6:00 AM73 °FPassing clouds.3 mph89%29.89 "HgN/A
5:30 AM73 °FOvercast.2 mph89%29.89 "HgN/A
5:00 AM73 °FMostly cloudy.No wind83%29.89 "HgN/A
4:30 AM73 °FMostly cloudy.2 mph83%29.86 "HgN/A
4:00 AM73 °FOvercast.3 mph83%29.86 "HgN/A
3:30 AM73 °FPassing clouds.3 mph83%29.86 "HgN/A
3:00 AM73 °FPassing clouds.2 mph83%29.86 "HgN/A
2:30 AM73 °FPassing clouds.6 mph83%29.86 "HgN/A
2:00 AM73 °FPassing clouds.3 mph83%29.86 "HgN/A
Weather by CustomWeather, © 2015

See weather overviewHow to use our weather pages